Dewpoint
52 51 51 51 50 50 50 49 48 48 48 47 48 48 47 47 47 47 47 48 47 46 47 46 46 43 22 10 6 8 22 19 16 16 14 13 7 8 3 8 11 5 8 12 11 7 6
52 52 52 51 51 51 50 49 49 49 48 48 48 48 48 48 48 47 47 48 47 47 45 44 43 42 17 13 8 12 12 12 13 12 12 14 10 10 6 5 8 10 10 10 10 9 7
51 51 51 51 51 51 51 50 49 49 49 49 48 48 49 48 48 48 48 47 46 47 44 38 38 23 10 10 8 13 13 12 14 10 7 10 17 10 9 3 8 11 8 8 8 6 7
50 50 50 50 50 50 50 50 50 50 50 50 49 49 48 47 47 46 44 45 46 44 39 34 38 21 9 9 9 14 13 13 15 12 9 8 15 9 2 4 5 6 11 12 7 7 9
50 50 49 49 49 49 49 50 49 49 49 50 50 49 48 46 47 46 43 43 40 42 39 37 21 19 11 15 14 15 14 12 15 13 14 9 16 14 11 15 18 12 11 11 11 7 7
49 49 49 49 49 49 49 50 50 49 49 50 50 49 47 46 45 45 43 43 31 36 22 25 16 20 15 12 14 17 16 15 14 15 17 18 17 6 5 12 10 8 8 11 12 11 8
48 48 49 49 49 49 50 50 50 49 48 49 49 47 46 45 43 42 37 32 30 20 15 13 12 14 13 14 19 20 15 17 18 16 10 15 8 3 3 4 7 8 9 11 15 10 9
47 47 48 49 50 50 51 50 50 49 48 49 49 47 45 42 41 39 35 23 26 23 16 15 13 14 13 16 19 20 18 17 18 14 17 16 7 5 6 7 6 7 10 14 13 10 8
47 48 50 50 51 51 51 51 50 49 48 48 48 47 44 42 38 28 24 25 29 32 24 20 15 14 14 18 18 18 16 19 17 17 11 9 6 7 7 7 6 11 10 8 7 9 15
48 49 50 51 51 51 51 51 50 49 48 48 48 45 42 43 26 26 19 26 28 32 30 24 20 18 18 18 19 17 14 18 18 16 19 11 7 7 10 5 4 12 9 7 7 9 11
49 49 50 51 51 52 52 52 52 51 50 48 47 43 40 40 28 19 24 28 28 37 19 24 20 17 20 19 19 20 16 21 20 15 21 18 11 10 9 7 5 11 9 10 7 11 16
49 50 50 51 51 52 52 52 52 52 51 48 46 40 39 29 30 28 31 33 38 34 11 22 22 20 20 21 20 20 22 21 19 21 18 14 10 10 9 10 8 9 17 11 11 13 16
49 50 51 51 52 52 52 52 52 52 52 48 45 40 33 31 27 31 34 37 29 5 24 20 19 19 20 19 21 21 19 18 21 22 22 26 13 11 12 17 12 16 20 14 14 18 16
50 50 51 52 52 52 52 53 53 52 52 49 44 40 33 32 33 35 39 29 5 22 22 19 19 20 20 18 21 22 24 18 17 24 27 22 21 18 13 15 14 18 20 14 11 12 15
50 51 51 52 52 52 53 53 53 53 52 48 43 38 38 37 32 37 36 12 22 23 16 18 22 21 23 22 20 25 21 18 13 17 22 22 22 12 11 10 14 22 21 11 12 16 17
51 51 52 52 53 53 53 54 54 54 52 44 38 39 40 37 33 41 23 21 23 15 14 16 19 21 20 22 19 21 25 22 15 15 18 22 21 17 12 13 10 18 18 15 20 14 14
51 52 52 53 53 53 54 54 54 54 51 41 43 39 42 37 38 28 19 22 19 12 17 19 20 20 23 17 19 20 23 20 16 12 18 20 20 21 17 18 21 14 14 12 18 17 13
52 52 53 53 54 54 54 55 55 55 48 42 42 28 44 40 25 28 19 22 18 15 14 16 18 20 19 17 20 22 21 19 17 13 18 20 21 20 22 15 15 19 23 12 16 17 14
53 53 54 54 54 55 54 55 55 55 51 38 35 39 43 39 23 22 20 19 18 17 17 17 17 16 15 17 24 24 20 16 15 14 16 17 21 23 24 18 15 12 12 17 15 13 16
53 54 54 55 54 54 55 56 55 55 54 41 38 22 32 31 34 27 28 25 22 17 17 15 16 14 15 16 17 20 20 14 13 12 21 20 17 23 25 25 22 22 18 14 15 14 14
54 55 55 55 56 56 56 55 55 55 54 44 37 29 31 33 26 28 30 32 25 21 18 15 18 16 17 20 22 17 16 15 14 14 15 14 13 15 18 18 18 18 18 16 14 17 16
56 56 56 56 55 54 53 54 54 55 52 40 40 40 39 34 27 31 31 33 25 25 23 25 22 25 19 20 24 25 21 20 22 15 15 15 18 18 19 20 18 17 17 17 16 17 16
55 54 53 52 51 51 51 52 53 54 52 45 37 36 41 40 32 34 37 32 28 28 31 27 24 22 22 21 18 15 15 16 16 22 16 16 16 17 19 17 16 16 17 16 16 15 16
52 52 51 51 51 51 50 51 51 53 50 42 40 39 38 40 38 36 37 35 36 33 33 29 20 21 19 16 18 19 17 17 14 15 17 18 17 17 16 16 15 16 23 19 18 18 17
50 50 50 49 49 49 49 49 49 50 50 46 37 39 38 39 39 38 39 38 37 33 32 30 22 18 20 25 31 29 25 18 13 11 13 17 16 14 15 15 17 18 18 18 17 16 18
44 44 44 44 44 44 45 45 46 47 49 46 41 40 38 40 39 41 40 39 40 36 31 26 20 22 19 22 27 26 27 29 23 11 11 11 14 14 14 15 16 18 17 17 16 16 19
43 43 43 42 42 42 42 42 43 44 46 48 45 41 41 38 40 36 37 38 34 34 34 29 23 20 18 27 27 26 26 28 24 22 12 10 10 11 12 14 16 18 16 16 17 20 24
41 42 42 42 41 41 41 42 42 42 43 47 43 40 41 38 39 40 37 38 34 34 36 31 30 26 19 27 27 27 25 25 24 22 15 16 17 14 12 12 15 15 13 18 24 24 24
39 39 39 39 39 39 39 39 41 42 42 44 41 40 42 39 37 39 38 36 37 38 37 29 34 28 28 29 29 29 28 27 26 24 22 25 27 23 20 18 20 15 20 22 25 24 23
Wind_Speed
10 10 11 12 13 12 12 12 13 12 12 11 11 11 11 11 12 12 13 14 15 14 15 15 12 9 2 9 5 11 20 18 12 10 14 6 13 4 5 4 4 6 3 5 4 2 1
11 11 12 13 13 13 12 12 12 12 12 12 12 12 12 12 12 13 14 14 15 14 15 15 15 10 3 12 6 11 16 10 15 11 15 12 5 5 8 5 5 3 6 5 2 1 2
11 12 12 13 14 14 13 13 13 13 13 13 13 13 12 13 13 13 15 15 16 14 14 12 12 4 13 7 5 12 15 5 8 9 6 5 5 5 3 4 3 8 1 1 1 2 3
11 12 13 13 14 14 14 15 15 14 14 14 14 14 14 13 13 14 16 14 13 12 12 11 9 2 5 2 5 10 13 3 12 1 2 4 6 8 5 5 3 3 1 7 1 6 2
11 12 13 14 14 15 15 16 16 16 16 16 16 16 15 15 14 14 15 13 12 11 12 11 3 2 4 1 6 9 8 7 12 2 2 3 2 6 5 3 3 10 6 8 7 4 6
11 12 14 14 14 15 15 16 16 17 17 16 16 16 16 15 15 15 16 7 9 9 6 2 4 2 6 10 8 11 8 7 4 9 3 8 7 7 10 13 4 6 7 6 10 6 4
11 12 13 14 14 15 15 16 16 18 18 18 16 16 16 15 15 15 8 2 2 4 16 7 2 2 6 14 6 12 8 10 3 7 6 7 17 10 5 5 1 2 5 11 9 3 17
11 12 13 14 15 15 16 16 17 18 19 19 17 17 16 14 14 17 4 6 2 2 10 3 2 2 2 4 6 17 17 7 9 10 6 6 8 1 4 3 4 3 8 9 12 2 13
11 12 13 14 15 16 16 17 18 19 21 20 18 18 18 15 9 8 11 6 3 5 4 4 4 3 4 6 5 15 12 5 9 10 13 8 1 2 3 4 10 4 2 5 9 18 1
10 11 12 14 15 16 17 18 19 20 21 22 18 18 19 16 4 2 5 3 4 3 4 12 7 5 4 1 3 3 4 3 7 6 5 7 0 3 3 2 4 6 0 5 10 11 7
10 11 12 13 15 16 17 18 19 20 21 21 17 17 17 12 2 4 0 4 4 1 2 8 5 2 6 6 7 8 3 4 6 4 3 5 4 5 3 3 3 5 8 7 2 0 4
9 11 12 14 15 16 17 18 20 21 22 22 17 17 15 6 5 1 3 4 1 3 2 4 5 9 5 5 5 7 6 9 1 2 7 4 1 3 2 4 3 9 4 2 1 1 2
9 10 12 13 15 16 17 19 20 21 21 21 14 12 8 3 2 4 3 1 2 5 3 5 4 7 6 7 6 8 6 14 8 8 12 4 2 1 2 5 1 7 6 6 3 2 4
8 9 11 13 14 16 17 19 21 23 22 21 11 8 4 3 1 2 1 3 4 1 1 2 3 7 4 9 3 8 3 4 9 4 2 8 9 3 5 3 4 5 2 1 6 5 6
7 9 10 12 14 16 18 20 22 24 23 20 8 1 1 5 1 2 3 5 2 1 2 6 4 3 3 4 5 7 5 1 2 6 6 8 6 2 4 1 1 1 0 1 4 2 2
6 7 9 11 14 16 19 21 23 26 27 11 2 2 3 2 1 2 6 4 3 1 2 1 3 3 4 7 7 8 2 2 1 1 1 2 9 0 1 1 2 1 2 1 1 7 8
5 7 9 11 14 16 19 21 23 26 32 2 3 3 4 2 1 10 5 3 2 1 2 4 1 2 1 4 4 4 2 1 1 2 2 3 2 4 1 4 3 1 1 1 0 3 5
4 6 9 11 14 17 19 21 23 26 30 8 3 3 4 1 4 5 4 2 1 1 1 2 2 1 2 2 3 2 3 1 4 5 1 2 3 8 10 1 1 1 4 4 3 5 5
4 7 9 11 13 15 18 20 22 22 19 5 4 3 4 2 3 4 1 2 1 2 2 2 2 2 2 2 4 4 2 3 6 5 5 6 3 8 9 1 1 5 6 5 4 2 14
4 6 9 11 13 15 17 19 22 22 17 3 4 3 7 9 3 4 2 1 1 0 1 1 1 1 1 4 7 4 4 4 6 3 4 4 4 11 19 18 2 10 9 11 11 9 10
5 6 8 10 12 14 15 17 18 21 24 3 7 3 1 5 7 4 2 1 1 2 1 2 2 8 6 5 4 8 5 3 4 4 4 3 8 9 24 25 20 25 34 16 23 31 19
5 6 8 8 10 12 14 15 16 18 19 6 3 2 2 1 1 3 0 2 2 2 3 4 8 5 12 12 11 11 5 6 7 7 8 4 5 3 12 24 16 16 28 15 29 28 26
5 8 9 11 12 13 15 15 15 15 11 3 2 2 1 3 1 1 3 3 2 3 6 7 10 5 11 20 5 4 6 5 6 9 15 9 5 2 13 5 15 22 14 17 10 11 10
11 10 10 10 10 11 14 15 16 14 8 2 1 3 2 7 7 8 6 8 13 13 13 6 6 8 1 4 5 5 6 11 10 12 12 10 6 3 11 8 5 5 3 6 17 14 25
12 11 11 11 11 12 13 13 15 16 6 1 2 2 5 8 10 9 16 15 11 7 9 10 6 2 2 3 4 7 3 3 2 2 10 7 9 5 7 7 15 15 4 4 6 15 18
11 11 10 10 11 11 11 12 12 12 9 1 1 3 3 4 11 13 11 9 16 14 4 5 1 2 2 3 3 5 9 6 5 3 6 5 4 8 2 7 13 4 5 5 6 17 10
10 10 10 10 11 11 11 12 12 13 14 1 1 1 3 4 5 5 7 6 5 2 3 1 2 2 1 7 9 11 10 4 7 7 8 6 4 21 18 12 14 17 5 6 4 6 1
8 9 9 10 10 11 11 11 11 11 12 3 0 1 3 5 9 7 7 9 3 5 12 4 2 3 4 8 7 8 8 8 3 6 9 16 13 13 7 10 14 12 5 6 3 2 7
8 8 8 9 10 10 11 10 11 11 11 7 3 1 2 5 8 3 8 6 6 7 4 10 4 6 11 6 6 5 6 4 10 14 6 8 15 12 17 13 7 12 13 6 5 6 4
Wind_Direction
59 52 47 45 42 38 36 34 32 27 22 14 6 358 352 345 340 336 334 334 335 334 332 327 333 346 5 47 6 305 338 338 348 6 34 27 51 33 83 85 61 76 116 67 102 128 276
57 52 49 46 42 38 35 32 28 20 14 8 1 354 347 339 334 329 326 324 328 329 329 324 332 330 56 64 297 320 344 343 13 24 33 39 53 35 90 61 63 94 116 122 169 317 302
54 51 48 44 41 38 34 32 25 17 11 6 1 353 345 336 329 326 321 317 316 316 324 326 337 23 62 59 288 318 351 338 12 22 39 30 354 88 123 88 117 137 49 99 39 27 321
54 50 47 43 40 36 32 30 24 16 8 2 357 353 346 338 330 324 322 311 305 308 309 308 327 65 82 255 299 342 350 356 351 5 52 338 15 84 55 119 79 24 40 356 35 341 323
52 47 44 38 36 31 28 24 20 13 7 359 354 351 344 337 327 322 323 308 298 304 296 305 9 54 29 276 3 338 17 351 322 334 301 330 25 73 42 36 51 27 330 341 319 24 317
52 45 42 35 31 27 23 20 15 12 7 358 355 349 342 335 325 324 319 292 308 321 332 280 59 65 25 327 312 337 334 338 340 335 43 31 49 59 26 36 17 330 331 322 297 335 325
48 42 38 31 26 22 18 16 12 10 5 0 354 350 343 339 326 332 354 7 47 6 38 68 23 48 334 316 283 351 347 334 349 51 33 29 54 39 14 31 74 286 289 299 266 13 339
44 38 33 26 21 17 13 11 9 7 4 360 351 348 346 343 336 344 70 71 77 115 80 32 53 41 299 339 348 351 1 50 37 43 2 42 58 301 301 295 331 305 312 322 291 308 339
41 34 30 24 18 14 10 8 6 3 1 357 351 346 346 341 337 38 74 75 324 352 74 25 39 15 335 10 40 346 13 1 41 43 42 81 81 285 356 24 5 17 352 322 297 320 275
39 32 28 22 16 12 8 6 5 1 357 356 352 347 345 338 66 26 53 341 334 345 81 355 359 5 341 20 42 307 14 34 37 47 59 76 187 357 347 54 6 320 110 318 317 349 310
38 27 24 19 15 12 9 4 4 0 355 354 350 349 350 25 102 58 274 320 318 37 80 339 336 320 331 48 315 16 13 39 55 35 7 358 358 13 46 336 348 290 330 292 275 175 329
33 25 21 17 14 9 7 3 2 358 356 355 351 350 354 26 52 34 315 327 62 52 24 329 341 357 10 25 16 322 24 41 65 76 52 83 43 48 314 296 255 308 333 115 57 27 306
27 23 21 14 12 7 5 0 356 354 354 354 348 346 15 6 28 310 337 59 53 67 336 335 338 355 348 338 4 21 45 38 37 11 2 338 26 18 347 324 223 11 9 332 328 332 261
19 18 20 14 10 5 1 355 352 349 349 348 341 342 27 51 327 353 81 76 67 207 335 348 303 323 17 7 6 8 64 45 37 45 11 349 329 6 359 53 319 6 45 46 299 279 297
15 14 14 10 6 3 358 352 349 347 346 342 330 48 37 351 359 56 89 55 147 209 311 339 343 1 353 18 356 17 51 95 347 12 25 343 287 118 60 74 134 54 2 97 294 48 306
14 11 11 5 4 360 355 352 349 346 346 353 60 37 352 342 59 62 73 117 188 38 349 336 17 19 325 332 0 7 356 176 154 174 102 171 293 89 148 53 49 14 132 301 42 313 302
14 7 5 3 359 358 355 353 351 350 346 46 49 56 330 89 75 51 83 119 127 54 24 30 331 307 305 328 327 317 303 177 193 141 63 134 183 288 123 206 184 123 202 124 139 180 264
4 4 359 359 360 357 355 355 356 357 353 46 19 59 340 95 28 45 74 56 106 122 38 60 106 148 231 295 272 266 273 207 148 148 243 180 168 270 278 150 196 189 216 183 216 243 225
356 355 354 354 356 357 353 355 355 359 21 346 40 320 355 27 77 60 134 85 122 159 190 174 200 214 202 248 303 236 264 177 168 174 183 178 237 306 297 79 75 222 203 185 121 75 233
342 343 347 350 350 351 349 353 350 350 0 64 21 9 359 46 58 106 124 162 215 214 216 183 197 171 228 254 225 268 247 198 193 176 156 168 233 223 262 274 102 265 246 215 206 238 240
323 332 335 340 344 343 346 346 345 347 350 76 30 56 80 5 18 49 29 190 238 274 235 217 228 229 203 259 235 234 220 198 191 194 175 193 256 228 261 276 277 272 269 225 213 234 238
305 324 341 359 10 7 3 353 351 350 351 68 56 32 28 289 283 1 339 232 229 253 200 248 237 223 206 232 233 267 198 206 245 168 175 192 268 313 276 275 279 271 271 221 223 238 250
74 70 66 58 48 39 31 21 14 5 0 66 110 111 112 270 222 309 239 208 215 189 250 231 234 244 247 246 266 271 264 266 226 198 192 182 221 311 281 302 323 289 267 213 202 206 208
88 81 70 57 48 43 39 31 26 19 33 57 107 104 148 253 222 235 242 249 273 246 251 236 203 219 273 343 286 264 262 251 223 211 180 179 176 209 280 322 251 238 246 225 223 238 219
79 70 61 54 47 42 40 32 29 21 26 53 143 178 196 258 238 258 254 258 273 247 233 245 217 158 108 71 301 300 248 268 213 57 205 188 171 250 256 235 290 285 206 172 240 279 248
72 68 61 52 46 37 30 28 25 19 6 8 220 137 167 257 237 236 249 242 258 251 263 222 71 348 99 145 177 244 238 223 223 208 20 109 142 201 267 259 281 212 191 164 133 291 170
58 53 49 44 37 32 29 27 23 17 7 200 323 140 138 231 257 206 223 241 164 179 240 188 186 181 275 177 215 232 249 218 237 213 173 156 186 220 227 253 279 269 228 137 278 305 245
46 42 35 31 29 18 16 12 13 13 10 353 316 354 208 227 263 225 221 221 216 201 257 173 133 210 163 205 223 237 226 218 257 196 198 196 184 217 188 219 282 173 126 228 301 290 309
34 29 24 20 22 12 3 2 1 359 0 352 250 165 166 218 257 260 255 262 242 217 186 184 252 178 194 193 231 248 236 218 226 268 169 226 215 260 209 220 247 191 239 320 22 316 315